Regional Weather Roundup
Issued by NWS New Orleans/Baton Rouge, LA

Home | Current Version | Previous Version | Text Only | Print | Product List | Glossary On
Versions: 1 2 3 4 5 6 7 8 9 10 11 12 13 14 15 16 17 18 19 20 21 22 23 24 25 26 27 28 29 30 31 32 33 34 35 36 37 38 39 40 41 42 43 44 45 46 47 48 49 50
664
ASUS44 KLIX 020010
RWRLIX
NEW ORLEANS REGIONAL WEATHER ROUNDUP
NATIONAL WEATHER SERVICE NEW ORLEANS LA
700 PM CDT MON SEP 01 2014

NOTE: "FAIR" INDICATES FEW OR NO CLOUDS BELOW 12,000 FEET WITH NO
      SIGNIFICANT WEATHER AND/OR OBSTRUCTIONS TO VISIBILITY.
      SKY/WX - SKY CONDITION AND SIGNIFICANT WEATHER.
      TMP - AIR TEMPERATURE.     DP    - DEWPOINT TEMPERATURE.
      RH  - RELATIVE HUMIDITY.   PRES  - PRESSURE.
      HI  - HEAT INDEX.          WCI   - WIND CHILL INDEX.

*  THESE STATIONS ARE NOT NWS OR FAA STATIONS AND ARE NOT UNDER
   NWS QUALITY CONTROL.

LAZ038-040-048-061>063-065>067-069-020100-
SOUTHEAST LOUISIANA

CITY           SKY/WX    TMP DP  RH WIND       PRES   REMARKS
N.O. AUDUBON     N/A     84  79  85 MISG        N/A  HX  96
6HR MIN TEMP:  78; 6HR MAX TEMP:  89; 6HR PCP:  0.21;

N.O. INTL ARPT CLOUDY    83  75  77 S6        30.00R
6HR MIN TEMP:  83; 6HR MAX TEMP:  92;

N.O. LAKEFRONT LGT RAIN  81  76  84 E6        30.01R
6HR MIN TEMP:  77; 6HR MAX TEMP:  90; 6HR PCP:  0.17;

N.O. DOWNTOWN*   N/A     82  73  74 CALM      30.01R
6HR MIN TEMP:  79; 6HR MAX TEMP:  90; 6HR PCP:  0.34;

SLIDELL        CLOUDY    79  74  84 CALM      30.02R
6HR MIN TEMP:  79; 6HR MAX TEMP:  88; 6HR PCP:  0.19;

BATON ROUGE    CLOUDY    82  75  79 E6        30.00R
6HR MIN TEMP:  79; 6HR MAX TEMP:  92; 6HR PCP:  0.04;

BOOTHVILLE     MOCLDY    84  74  71 SE9       30.01S
6HR MIN TEMP:  84; 6HR MAX TEMP:  90;

BELLE CHASSE   CLOUDY    83  75  77 CALM      29.99S
6HR MIN TEMP:  80; 6HR MAX TEMP:  91; 6HR PCP:  0.08;

BOGALUSA*      MOCLDY    79  74  84 SE5       30.05R
6HR MIN TEMP:  78; 6HR MAX TEMP:  92; 6HR PCP:  0.57;

GALLIANO*      NOT AVBL
NEW ROADS*     MOCLDY    81  75  82 SE5       29.99R THUNDER
6HR MIN TEMP:  76; 6HR MAX TEMP:  89; 6HR PCP:  0.11;

GONZALES*        N/A     84  80  87 CALM      30.00R HX  97
6HR MIN TEMP:  81; 6HR MAX TEMP:  91;

HAMMOND*       CLOUDY    81  73  78 CALM      30.03R
HOUMA*         PTCLDY    84  73  70 SE7       29.98F
PORT FOURCHON* PTCLDY    86  75  70 S7G17     30.01S HX  95

$$

MSZ070-080>082-020100-
SOUTHERN MISSISSIPPI

CITY           SKY/WX    TMP DP  RH WIND       PRES   REMARKS
MCCOMB         MOCLDY    78  74  87 SE7       30.03R
6HR MIN TEMP:  77; 6HR MAX TEMP:  91; 6HR PCP:  0.01;

GULFPORT       PTCLDY    83  75  77 SW3       30.02R
6HR MIN TEMP:  83; 6HR MAX TEMP:  90; 6HR PCP: TRACE;

BILOXI         PTCLDY    85  76  74 S9        30.03R
6HR MIN TEMP:  85; 6HR MAX TEMP:  91;

PASCAGOULA     LGT RAIN  76  73  91 SW6       30.04R FOG
6HR MIN TEMP:  77; 6HR MAX TEMP:  91; 6HR PCP:  0.09;


$$

COASTAL OBSERVATIONS
LAKE AND NEARSHORE STATIONS

STATION/POSITION TIME  TEMP    WIND        PRES    WAVE
                       AIR SEA DIR/SP/G            HT/PER
                 (UTC) (F)     (DEG/KT/KT) (MB)    (FT/S)
PASCAGOULA       0000   81     220/  5/  8 1016.6
WAVELAND YACHT   0000   84     160/ 13/ 15 1016.0
GRAND ISLE       0000   84 85  150/  7/ 11 1016.4
SOUTHWEST PASS   0000   85 91  140/  8/ 14 1016.5
NEW CANAL        0000   80 82   CALM  /  2 1016.6
SHELL BEACH      0000   81 81  140/  8/ 10 1015.8

OFFSHORE STATIONS

STATION/POSITION TIME  TEMP    WIND        PRES    WAVE
                       AIR SEA DIR/SP/G            HT/PER
                 (UTC) (F)     (DEG/KT/KT) (MB)    (FT/S)

$$




USA.gov is the U.S. government's official web portal to all federal, state and local government web resources and services.